Погода в Залукокоаже

Россия / Кабардино-Балкарская Республика     43°54′02″N   43°13′11″E
темп.,
°C
ветер,
м/с
пор.,
м/с
влажн.,
%
обл.,
%
осадки,
мм/ч
давл.,
гПа
погр.,
м
20 января, ср
ср2000:00−6ююв229196 0.1 102446
03:00−7ююв369082 0.1 1023155
06:00−8зюз127128 0.0 102324
09:00−7зсз358063 0.0 1024225
12:00−4сз2375100 0.0 1024444
15:00−4ссз236892 0.0 1024910
18:00−6сз1185100 0.0 102757
21:00−6юз1187100 0.1 102834
21 января, чт
чт2100:00−8юз228284 0.0 103026
03:00−8зюз127560 0.0 103021
06:00−8юз22680 0.0 103221
09:00−7зюз22670 0.0 103247
12:00−3ююв01580 0.0 1031345
15:00−2ююв23670 0.0 1030285
18:00−5ююз23690 0.0 103325
21:00−5юз22620 0.0 103321
22 января, пт
пт2200:00−4юз22560 0.0 103321
03:00−4юз33500 0.0 103223
06:00−3юз23520 0.0 103221
09:00−1юз33560 0.0 103133
12:00+3ю23650 0.0 1030102
15:00+3ююв22660 0.0 102742
18:00−1ю22600 0.0 102921
21:00−1ю23610 0.0 102922
23 января, сб
сб2300:00−2ю23580 0.0 102923
03:00−2ю22510 0.0 102822
06:00−2ююв22520 0.0 102822
09:00−1юв22570 0.0 102851
12:00+2юв35580 0.0 1025235
15:00+1вюв23640 0.0 1024223
18:00−2юв22750 0.0 102623
21:00−2юв11730 0.0 102621
24 января, вс
вс2400:00−2юв11720 0.0 102521
03:00−2вюв01682 0.0 102421
06:00−3в11680 0.0 102321
09:00−1юв11600 0.0 102325
12:00+2вюв22560 0.0 1020133
15:00+2вюв336610 0.0 1019157
18:00−1юв33720 0.0 102059
21:00−1юв23717 0.0 102048